Wetterdaten: Woche 17.11.08 - 23.11.08 (KW47)
Datum Zeit Temperatur Luftfeuchte Luftdruck Niederschlag Windrichtung Wind
17.11.2008 00:00 4,8 C 98 % 1029,8 hPa 0,2 l/m N-NW 4,7 km/h (1 Bft)
17.11.2008 01:00 4,9 C 99 % 1029,9 hPa 0,0 l/m N-NW 2,4 km/h (1 Bft)
17.11.2008 02:00 4,8 C 98 % 1029,9 hPa 0,0 l/m N-NW 0,3 km/h (0 Bft)
17.11.2008 03:00 4,8 C 98 % 1029,8 hPa 0,0 l/m N-NO 2,8 km/h (1 Bft)
17.11.2008 04:00 4,7 C 98 % 1030,0 hPa 0,0 l/m N-NO 2,3 km/h (1 Bft)
17.11.2008 05:00 4,5 C 97 % 1030,2 hPa 0,0 l/m N 2,8 km/h (1 Bft)
17.11.2008 06:00 4,4 C 95 % 1030,6 hPa 0,0 l/m O-NO 6,1 km/h (2 Bft)
17.11.2008 07:00 4,0 C 92 % 1031,3 hPa 0,0 l/m O-SO 7,8 km/h (2 Bft)
17.11.2008 08:00 3,4 C 92 % 1031,6 hPa 0,2 l/m O-SO 5,2 km/h (1 Bft)
17.11.2008 09:00 3,3 C 91 % 1031,7 hPa 0,0 l/m O-NO 7,6 km/h (2 Bft)
17.11.2008 10:00 4,0 C 87 % 1031,7 hPa 0,0 l/m O 11,4 km/h (2 Bft)
17.11.2008 11:00 4,7 C 78 % 1031,1 hPa 0,0 l/m NO 10,6 km/h (2 Bft)
17.11.2008 12:00 4,9 C 77 % 1030,2 hPa 0,0 l/m O-NO 8,7 km/h (2 Bft)
17.11.2008 13:00 6,1 C 70 % 1029,5 hPa 0,0 l/m O-SO 9,9 km/h (2 Bft)
17.11.2008 14:00 5,5 C 69 % 1029,1 hPa 0,0 l/m O-SO 6,6 km/h (2 Bft)
17.11.2008 15:00 5,4 C 69 % 1028,6 hPa 0,0 l/m NO 7,1 km/h (2 Bft)
17.11.2008 16:00 4,8 C 72 % 1028,0 hPa 0,0 l/m O 5,5 km/h (1 Bft)
17.11.2008 17:00 3,4 C 77 % 1027,8 hPa 0,0 l/m N 2,3 km/h (1 Bft)
17.11.2008 18:00 1,3 C 83 % 1027,5 hPa 0,0 l/m N 0,7 km/h (0 Bft)
17.11.2008 19:00 0,1 C 88 % 1026,7 hPa 0,0 l/m N 1,2 km/h (1 Bft)
17.11.2008 20:00 -0,5 C 91 % 1025,9 hPa 0,0 l/m N 2,5 km/h (1 Bft)
17.11.2008 21:00 -0,9 C 92 % 1025,2 hPa 0,0 l/m N-NO 2,0 km/h (1 Bft)
17.11.2008 22:00 -1,1 C 93 % 1024,3 hPa 0,0 l/m NW 2,4 km/h (1 Bft)
17.11.2008 23:00 -1,4 C 93 % 1023,4 hPa 0,0 l/m NW 1,3 km/h (1 Bft)
18.11.2008 00:00 -1,4 C 95 % 1022,6 hPa 0,0 l/m NW 3,1 km/h (1 Bft)
18.11.2008 01:00 -1,1 C 95 % 1021,5 hPa 0,0 l/m NW 0,8 km/h (0 Bft)
18.11.2008 02:00 -0,8 C 94 % 1020,7 hPa 0,0 l/m N 1,5 km/h (1 Bft)
18.11.2008 03:00 -0,8 C 94 % 1019,9 hPa 0,0 l/m N-NW 2,5 km/h (1 Bft)
18.11.2008 04:00 -0,6 C 95 % 1019,2 hPa 0,0 l/m N 1,3 km/h (1 Bft)
18.11.2008 05:00 -0,6 C 94 % 1018,8 hPa 0,0 l/m N 0,9 km/h (0 Bft)
18.11.2008 06:00 -0,5 C 96 % 1018,2 hPa 0,0 l/m SW 4,7 km/h (1 Bft)
18.11.2008 07:00 0,2 C 98 % 1017,9 hPa 0,0 l/m S-SW 6,3 km/h (2 Bft)
18.11.2008 08:00 0,8 C 98 % 1017,9 hPa 0,0 l/m SW 4,8 km/h (1 Bft)
18.11.2008 09:00 1,5 C 99 % 1017,9 hPa 0,0 l/m S-SW 3,1 km/h (1 Bft)
18.11.2008 10:00 2,2 C 99 % 1017,7 hPa 0,0 l/m S-SW 3,5 km/h (1 Bft)
18.11.2008 11:00 3,4 C 97 % 1017,2 hPa 0,0 l/m S-SW 15,7 km/h (3 Bft)
18.11.2008 12:00 4,7 C 93 % 1016,1 hPa 0,0 l/m SW 15,7 km/h (3 Bft)
18.11.2008 13:00 5,8 C 89 % 1015,7 hPa 0,0 l/m SW 12,6 km/h (3 Bft)
18.11.2008 14:00 6,5 C 82 % 1015,4 hPa 0,0 l/m W 15,8 km/h (3 Bft)
18.11.2008 15:00 6,3 C 81 % 1015,4 hPa 0,0 l/m W-SW 9,9 km/h (2 Bft)
18.11.2008 16:00 5,5 C 84 % 1015,6 hPa 0,0 l/m W-SW 7,3 km/h (2 Bft)
18.11.2008 17:00 4,4 C 87 % 1015,9 hPa 0,0 l/m W-SW 12,2 km/h (2 Bft)
18.11.2008 18:00 3,9 C 88 % 1016,6 hPa 0,0 l/m W-NW 4,8 km/h (1 Bft)
18.11.2008 19:00 2,6 C 90 % 1017,1 hPa 0,0 l/m NO 2,3 km/h (1 Bft)
18.11.2008 20:00 1,6 C 93 % 1017,5 hPa 0,0 l/m S-SW 3,3 km/h (1 Bft)
18.11.2008 21:00 1,3 C 95 % 1017,5 hPa 0,0 l/m S-SW 4,1 km/h (1 Bft)
18.11.2008 22:00 1,3 C 95 % 1017,9 hPa 0,0 l/m S-SW 6,1 km/h (2 Bft)
18.11.2008 23:00 1,6 C 97 % 1018,0 hPa 0,0 l/m S-SW 6,8 km/h (2 Bft)
19.11.2008 00:00 2,8 C 94 % 1018,3 hPa 0,0 l/m W-SW 12,2 km/h (2 Bft)
19.11.2008 01:00 3,3 C 92 % 1018,1 hPa 0,0 l/m SW 11,3 km/h (2 Bft)
19.11.2008 02:00 3,1 C 93 % 1018,4 hPa 0,0 l/m S-SW 9,0 km/h (2 Bft)
19.11.2008 03:00 3,3 C 94 % 1018,7 hPa 0,0 l/m S-SW 10,6 km/h (2 Bft)
19.11.2008 04:00 3,6 C 94 % 1019,0 hPa 0,4 l/m S-SW 6,4 km/h (2 Bft)
19.11.2008 05:00 3,4 C 96 % 1019,3 hPa 0,2 l/m SW 11,8 km/h (2 Bft)
19.11.2008 06:00 3,9 C 96 % 1019,8 hPa 0,0 l/m W-SW 15,2 km/h (3 Bft)
19.11.2008 07:00 4,1 C 96 % 1020,4 hPa 0,0 l/m SW 6,6 km/h (2 Bft)
19.11.2008 08:00 4,1 C 97 % 1021,0 hPa 0,0 l/m S-SW 7,2 km/h (2 Bft)
19.11.2008 09:00 4,4 C 97 % 1021,5 hPa 0,0 l/m SW 8,3 km/h (2 Bft)
19.11.2008 10:00 5,4 C 94 % 1021,7 hPa 0,0 l/m W 12,1 km/h (2 Bft)
19.11.2008 11:00 6,0 C 93 % 1021,4 hPa 0,2 l/m W-SW 16,4 km/h (3 Bft)
19.11.2008 12:00 6,3 C 94 % 1021,2 hPa 0,0 l/m S-SW 10,9 km/h (2 Bft)
19.11.2008 13:00 6,7 C 91 % 1021,0 hPa 0,0 l/m W 11,9 km/h (2 Bft)
19.11.2008 14:00 6,7 C 90 % 1020,8 hPa 0,0 l/m W 9,1 km/h (2 Bft)
19.11.2008 15:00 6,7 C 88 % 1020,6 hPa 0,0 l/m W 8,6 km/h (2 Bft)
19.11.2008 16:00 6,5 C 89 % 1020,8 hPa 0,0 l/m W 7,9 km/h (2 Bft)
19.11.2008 17:00 6,2 C 90 % 1020,8 hPa 0,0 l/m W 6,0 km/h (2 Bft)
19.11.2008 18:00 5,6 C 91 % 1020,5 hPa 0,0 l/m SW 8,6 km/h (2 Bft)
19.11.2008 19:00 5,3 C 92 % 1020,4 hPa 0,0 l/m W-SW 11,0 km/h (2 Bft)
19.11.2008 20:00 5,2 C 92 % 1020,5 hPa 0,0 l/m W-SW 9,4 km/h (2 Bft)
19.11.2008 21:00 4,6 C 93 % 1020,5 hPa 0,0 l/m W-SW 8,4 km/h (2 Bft)
19.11.2008 22:00 3,8 C 94 % 1020,2 hPa 0,0 l/m SW 7,6 km/h (2 Bft)
19.11.2008 23:00 3,2 C 95 % 1019,9 hPa 0,0 l/m S-SW 2,4 km/h (1 Bft)
20.11.2008 00:00 2,5 C 94 % 1019,8 hPa 0,0 l/m N 1,6 km/h (1 Bft)
20.11.2008 01:00 1,9 C 96 % 1019,4 hPa 0,0 l/m S-SW 5,5 km/h (1 Bft)
20.11.2008 02:00 3,2 C 96 % 1019,6 hPa 0,0 l/m W-SW 14,2 km/h (3 Bft)
20.11.2008 03:00 4,3 C 92 % 1019,3 hPa 0,0 l/m W-SW 15,7 km/h (3 Bft)
20.11.2008 04:00 4,9 C 91 % 1018,9 hPa 0,0 l/m W-SW 20,4 km/h (4 Bft)
20.11.2008 05:00 5,2 C 89 % 1018,8 hPa 0,0 l/m W 22,7 km/h (4 Bft)
20.11.2008 06:00 5,4 C 87 % 1018,7 hPa 0,0 l/m W-SW 24,7 km/h (4 Bft)
20.11.2008 07:00 5,4 C 84 % 1018,5 hPa 0,0 l/m W-SW 26,7 km/h (4 Bft)
20.11.2008 08:00 5,7 C 84 % 1018,6 hPa 0,0 l/m W-SW 33,0 km/h (5 Bft)
20.11.2008 09:00 6,2 C 80 % 1018,1 hPa 0,0 l/m W 38,6 km/h (5 Bft)
20.11.2008 10:00 6,6 C 78 % 1018,7 hPa 0,0 l/m SW 31,1 km/h (5 Bft)
20.11.2008 11:00 6,9 C 77 % 1017,7 hPa 0,0 l/m W-SW 34,7 km/h (5 Bft)
20.11.2008 12:00 7,3 C 77 % 1016,7 hPa 0,0 l/m W-SW 34,5 km/h (5 Bft)
20.11.2008 13:00 7,1 C 79 % 1016,5 hPa 0,0 l/m W 31,5 km/h (5 Bft)
20.11.2008 14:00 7,4 C 79 % 1016,3 hPa 0,0 l/m W 31,0 km/h (5 Bft)
20.11.2008 15:00 7,5 C 77 % 1015,6 hPa 0,0 l/m W-SW 35,7 km/h (5 Bft)
20.11.2008 16:00 7,2 C 76 % 1015,5 hPa 0,0 l/m SW 32,9 km/h (5 Bft)
20.11.2008 17:00 7,1 C 75 % 1015,2 hPa 0,0 l/m W-SW 36,2 km/h (5 Bft)
20.11.2008 18:00 6,9 C 75 % 1015,0 hPa 0,0 l/m W-SW 37,1 km/h (5 Bft)
20.11.2008 19:00 6,9 C 76 % 1014,4 hPa 0,0 l/m W-SW 36,1 km/h (5 Bft)
20.11.2008 20:00 6,8 C 77 % 1014,2 hPa 0,0 l/m W-SW 28,7 km/h (4 Bft)
20.11.2008 21:00 6,8 C 78 % 1014,4 hPa 0,0 l/m W-SW 28,2 km/h (4 Bft)
20.11.2008 22:00 6,7 C 80 % 1014,3 hPa 0,0 l/m W-SW 31,5 km/h (5 Bft)
20.11.2008 23:00 6,5 C 82 % 1014,0 hPa 0,0 l/m W 32,3 km/h (5 Bft)
21.11.2008 00:00 6,4 C 83 % 1013,1 hPa 0,0 l/m SW 36,7 km/h (5 Bft)
21.11.2008 01:00 6,4 C 83 % 1012,3 hPa 0,0 l/m W 37,5 km/h (5 Bft)
21.11.2008 02:00 6,2 C 87 % 1011,1 hPa 0,0 l/m W 38,1 km/h (5 Bft)
21.11.2008 03:00 6,3 C 89 % 1010,2 hPa 0,0 l/m W-SW 40,5 km/h (6 Bft)
21.11.2008 04:00 6,5 C 88 % 1008,8 hPa 0,0 l/m W-SW 36,4 km/h (5 Bft)
21.11.2008 05:00 6,7 C 87 % 1007,7 hPa 0,0 l/m W-SW 37,1 km/h (5 Bft)
21.11.2008 06:00 6,7 C 87 % 1006,4 hPa 0,0 l/m W-SW 37,3 km/h (5 Bft)
21.11.2008 07:00 6,6 C 89 % 1005,4 hPa 0,0 l/m W 38,4 km/h (5 Bft)
21.11.2008 08:00 6,5 C 88 % 1005,1 hPa 0,0 l/m W 36,9 km/h (5 Bft)
21.11.2008 09:00 6,3 C 88 % 1004,8 hPa 0,4 l/m W 39,8 km/h (6 Bft)
21.11.2008 10:00 6,0 C 90 % 1003,9 hPa 0,4 l/m W-SW 35,3 km/h (5 Bft)
21.11.2008 11:00 6,3 C 91 % 1002,1 hPa 0,0 l/m SW 36,6 km/h (5 Bft)
21.11.2008 12:00 6,8 C 89 % 999,8 hPa 0,2 l/m W 42,5 km/h (6 Bft)
21.11.2008 13:00 6,9 C 89 % 998,9 hPa 2,0 l/m W 40,2 km/h (6 Bft)
21.11.2008 14:00 5,4 C 89 % 999,9 hPa 1,4 l/m W-NW 32,9 km/h (5 Bft)
21.11.2008 15:00 4,4 C 89 % 1000,6 hPa 0,8 l/m W-NW 25,2 km/h (4 Bft)
21.11.2008 16:00 3,5 C 82 % 1002,5 hPa 0,0 l/m W-NW 34,2 km/h (5 Bft)
21.11.2008 17:00 2,8 C 75 % 1003,5 hPa 0,0 l/m W 29,3 km/h (5 Bft)
21.11.2008 18:00 2,2 C 78 % 1005,4 hPa 0,0 l/m NW 27,2 km/h (4 Bft)
21.11.2008 19:00 1,1 C 76 % 1006,1 hPa 0,0 l/m NW 23,6 km/h (4 Bft)
21.11.2008 20:00 0,8 C 75 % 1005,9 hPa 0,0 l/m W-NW 15,3 km/h (3 Bft)
21.11.2008 21:00 0,4 C 88 % 1005,5 hPa 0,0 l/m W-NW 13,0 km/h (3 Bft)
21.11.2008 22:00 -0,5 C 93 % 1005,0 hPa 2,6 l/m N-NO 15,5 km/h (3 Bft)
21.11.2008 23:00 -0,6 C 93 % 1004,8 hPa 1,6 l/m W-NW 15,4 km/h (3 Bft)
22.11.2008 00:00 -0,7 C 90 % 1004,9 hPa 0,2 l/m W-NW 8,8 km/h (2 Bft)
22.11.2008 01:00 -1,1 C 88 % 1004,6 hPa 0,0 l/m W 12,5 km/h (3 Bft)
22.11.2008 02:00 -1,5 C 88 % 1004,4 hPa 0,0 l/m W 6,2 km/h (2 Bft)
22.11.2008 03:00 -1,4 C 91 % 1003,7 hPa 0,0 l/m W 12,6 km/h (3 Bft)
22.11.2008 04:00 -1,3 C 92 % 1003,1 hPa 0,0 l/m W-SW 20,1 km/h (4 Bft)
22.11.2008 05:00 -0,8 C 93 % 1003,3 hPa 0,0 l/m W 21,9 km/h (4 Bft)
22.11.2008 06:00 -0,8 C 91 % 1003,8 hPa 0,0 l/m W-NW 20,1 km/h (4 Bft)
22.11.2008 07:00 -1,2 C 88 % 1004,2 hPa 0,0 l/m W-NW 19,3 km/h (3 Bft)
22.11.2008 08:00 -1,3 C 85 % 1005,1 hPa 0,0 l/m W-NW 21,2 km/h (4 Bft)
22.11.2008 09:00 -1,3 C 85 % 1005,3 hPa 0,0 l/m W-NW 20,0 km/h (4 Bft)
22.11.2008 10:00 -0,3 C 83 % 1005,8 hPa 0,0 l/m W-NW 20,1 km/h (4 Bft)
22.11.2008 11:00 0,2 C 82 % 1005,9 hPa 0,0 l/m W 24,5 km/h (4 Bft)
22.11.2008 12:00 -0,4 C 81 % 1005,7 hPa 0,0 l/m W-NW 28,6 km/h (4 Bft)
22.11.2008 13:00 -1,3 C 88 % 1006,0 hPa 0,0 l/m W 21,7 km/h (4 Bft)
22.11.2008 14:00 -1,5 C 91 % 1005,9 hPa 0,2 l/m W 19,4 km/h (3 Bft)
22.11.2008 15:00 -1,9 C 90 % 1005,8 hPa 0,4 l/m W-NW 24,8 km/h (4 Bft)
22.11.2008 16:00 -2,1 C 87 % 1006,2 hPa 0,0 l/m W 23,5 km/h (4 Bft)
22.11.2008 17:00 -2,1 C 86 % 1006,7 hPa 0,0 l/m W 28,4 km/h (4 Bft)
22.11.2008 18:00 -2,2 C 87 % 1007,7 hPa 0,0 l/m W 15,7 km/h (3 Bft)
22.11.2008 19:00 -2,5 C 88 % 1008,2 hPa 0,0 l/m W-NW 14,3 km/h (3 Bft)
22.11.2008 20:00 -2,8 C 89 % 1008,3 hPa 0,0 l/m W 13,0 km/h (3 Bft)
22.11.2008 21:00 -2,8 C 90 % 1008,6 hPa 0,0 l/m W-SW 8,2 km/h (2 Bft)
22.11.2008 22:00 -3,1 C 89 % 1008,8 hPa 0,0 l/m W-SW 7,5 km/h (2 Bft)
22.11.2008 23:00 -2,7 C 89 % 1009,1 hPa 0,0 l/m W 14,1 km/h (3 Bft)
23.11.2008 00:00 -2,3 C 89 % 1009,4 hPa 0,0 l/m W 11,0 km/h (2 Bft)
23.11.2008 01:00 -2,2 C 88 % 1009,7 hPa 0,0 l/m W-NW 10,6 km/h (2 Bft)
23.11.2008 02:00 -2,7 C 87 % 1010,1 hPa 0,0 l/m W-NW 6,4 km/h (2 Bft)
23.11.2008 03:00 -3,2 C 86 % 1010,3 hPa 0,0 l/m W 10,5 km/h (2 Bft)
23.11.2008 04:00 -3,6 C 88 % 1011,0 hPa 0,0 l/m W-SW 11,2 km/h (2 Bft)
23.11.2008 05:00 -3,6 C 88 % 1011,5 hPa 0,0 l/m W-SW 10,5 km/h (2 Bft)
23.11.2008 06:00 -3,6 C 89 % 1011,7 hPa 0,0 l/m W-SW 12,1 km/h (2 Bft)
23.11.2008 07:00 -3,6 C 87 % 1012,0 hPa 0,0 l/m W-SW 14,6 km/h (3 Bft)
23.11.2008 08:00 -3,2 C 85 % 1012,3 hPa 0,0 l/m W 21,4 km/h (4 Bft)
23.11.2008 09:00 -2,3 C 84 % 1012,4 hPa 0,0 l/m SW 25,8 km/h (4 Bft)
23.11.2008 10:00 -2,1 C 83 % 1012,2 hPa 0,0 l/m W-SW 24,7 km/h (4 Bft)
23.11.2008 11:00 -1,2 C 80 % 1011,5 hPa 0,0 l/m W-SW 23,2 km/h (4 Bft)
23.11.2008 12:00 -0,4 C 74 % 1010,4 hPa 0,0 l/m W-SW 29,0 km/h (5 Bft)
23.11.2008 13:00 -0,4 C 67 % 1009,4 hPa 0,0 l/m S-SW 34,6 km/h (5 Bft)
23.11.2008 14:00 -1,0 C 70 % 1008,2 hPa 0,0 l/m W-SW 24,4 km/h (4 Bft)
23.11.2008 15:00 -1,1 C 73 % 1006,4 hPa 0,0 l/m W-SW 19,4 km/h (3 Bft)
23.11.2008 16:00 -1,7 C 76 % 1004,6 hPa 0,0 l/m SW 15,7 km/h (3 Bft)
23.11.2008 17:00 -2,1 C 79 % 1002,4 hPa 0,0 l/m SW 16,9 km/h (3 Bft)
23.11.2008 18:00 -2,2 C 81 % 1000,4 hPa 0,0 l/m SW 16,1 km/h (3 Bft)
23.11.2008 19:00 -1,4 C 78 % 998,0 hPa 0,0 l/m SW 22,7 km/h (4 Bft)
23.11.2008 20:00 -1,8 C 87 % 995,8 hPa 0,4 l/m SW 30,4 km/h (5 Bft)
23.11.2008 21:00 -2,3 C 95 % 993,9 hPa 1,2 l/m SW 25,2 km/h (4 Bft)
23.11.2008 22:00 -2,2 C 95 % 992,8 hPa 0,6 l/m W-SW 21,0 km/h (4 Bft)
23.11.2008 23:00 -1,8 C 95 % 992,0 hPa 0,0 l/m SW 25,9 km/h (4 Bft)
Min-Datum _ 23.11.08 23.11.08 23.11.08 - - 17.11.08
_ Min-Zeit 04:25 13:20 23:50 - - 01:30
Minimum _ -3,7 C 66 % 991,7 hPa - - 0,0 km/h (0 Bft)
Max-Datum _ 20.11.08 17.11.08 17.11.08 21.11.08 - 21.11.08
_ Max-Zeit 14:35 01:15 10:05 22:45 - 12:25
Maximum _ 7,6 C 99 % 1032,0 hPa 2,6 l/m - 56,3 km/h
W-SW (7 Bft)
Durchschnitt _ 2,4 C 88 % 1014,5 hPa #13,6 l/m W-SW 16,7 km/h (3 Bft)